Weather History for Staples, MN

Change the Weather History Date:

Monday, September 9, 2013

  Actual Average Record
Temperature  
Mean Temperature 65 °F -  
Max Temperature 73 °F 70 °F 86 °F (2000)
Min Temperature 57 °F 50 °F 33 °F (2008)
Growing Degree Days 15 (Base 50)    
Moisture  
Dew Point 64 °F    
Average Humidity 93    
Maximum Humidity 100    
Minimum Humidity 83    
Precipitation  
Precipitation 1.03 in - - ()
Sea Level Pressure  
Sea Level Pressure 29.75 in    
Wind  
Wind Speed 3 mph (South)    
Max Wind Speed 14 mph    
Max Gust Speed 30 mph    
Visibility 7 miles    
Events Rain , Thunderstorm    
Averages and records for this station are not official NWS values.
T = Trace of Precipitation, MM = Missing Value Source: NWS Daily Summary

Daily Weather History Graph

Daily Weather History Graph

Search for Another Location

Airport:

Trip Planner

Search our weather history database for the weather conditions in past years. The results will help you decide how hot, cold, wet, or windy it might be!

Date:

Astronomy

Sep. 09, 2013 Rise Set
Actual Time 6:49 AM CDT 7:42 PM CDT
Civil Twilight 6:19 AM CDT 8:12 PM CDT
Nautical Twilight 5:42 AM CDT 8:48 PM CDT
Astronomical Twilight 5:04 AM CDT 9:26 PM CDT
Moon 11:30 AM CDT (9/9) 9:40 PM CDT (9/9)
Length of Visible Light 13h 53m
Length of Day
12h 52m
Waxing Crescent, 19% of the Moon is Illuminated
Sep 9
Waxing Crescent
Sep 12
First Quarter
Sep 19
Full
Sep 26
Last Quarter
Oct 4
New

Hourly Weather History & Observations

Time (CDT) Temp. Dew Point Humidity Pressure Visibility Wind Dir Wind Speed Gust Speed Precip Events Conditions
12:13 AM 57.2 °F 57.2 °F 100% 29.90 in 10.0 mi Calm Calm - N/A   Overcast
12:33 AM 57.2 °F 57.2 °F 100% 29.89 in 10.0 mi Calm Calm - N/A   Overcast
12:53 AM 57.2 °F 57.2 °F 100% 29.89 in 10.0 mi Calm Calm - N/A   Overcast
1:14 AM 57.2 °F 57.2 °F 100% 29.88 in 10.0 mi Calm Calm - N/A   Overcast
1:33 AM 59.0 °F 57.2 °F 94% 29.87 in 10.0 mi Calm Calm - N/A   Overcast
1:53 AM 59.0 °F 57.2 °F 94% 29.86 in 10.0 mi Calm Calm - N/A   Overcast
2:14 AM 59.0 °F 57.2 °F 94% 29.85 in 10.0 mi Calm Calm - N/A   Overcast
2:33 AM 59.0 °F 57.2 °F 94% 29.83 in 10.0 mi Calm Calm - N/A   Overcast
2:53 AM 59.0 °F 57.2 °F 94% 29.83 in 10.0 mi Calm Calm - N/A   Overcast
3:14 AM 59.0 °F 57.2 °F 94% 29.83 in 10.0 mi Calm Calm - N/A   Overcast
3:33 AM 59.0 °F 57.2 °F 94% 29.82 in 10.0 mi Calm Calm - N/A   Overcast
3:53 AM 60.8 °F 57.2 °F 88% 29.80 in 10.0 mi ESE 3.5 mph - N/A   Overcast
4:14 AM 60.8 °F 57.2 °F 88% 29.82 in 10.0 mi South 4.6 mph - N/A   Overcast
4:33 AM 60.8 °F 59.0 °F 94% 29.79 in 10.0 mi SSE 5.8 mph - 0.14 in Rain Light Rain
4:53 AM 60.8 °F 59.0 °F 94% 29.79 in 7.0 mi SSE 5.8 mph - 0.14 in Thunderstorm Thunderstorm
5:14 AM 60.8 °F 60.8 °F 100% 29.86 in 7.0 mi NW 11.5 mph - N/A   Overcast
5:33 AM 60.8 °F 60.8 °F 100% 29.83 in 5.0 mi ENE 3.5 mph - 0.01 in Rain Heavy Rain
5:53 AM 60.8 °F 60.8 °F 100% 29.78 in 5.0 mi ESE 4.6 mph - 0.02 in Rain Rain
6:14 AM 60.8 °F 60.8 °F 100% 29.76 in 4.0 mi ESE 5.8 mph - 0.01 in Rain Light Rain
6:33 AM 62.6 °F 60.8 °F 94% 29.79 in 4.0 mi SSE 4.6 mph - 0.01 in Thunderstorm Unknown
6:53 AM 62.6 °F 60.8 °F 94% 29.82 in 2.0 mi West 10.4 mph 29.9 mph 0.70 in Rain , Thunderstorm Heavy Thunderstorms and Rain
7:14 AM 60.8 °F 60.8 °F 100% 29.78 in 10.0 mi SE 4.6 mph - 0.12 in Rain , Thunderstorm Thunderstorms and Rain
7:33 AM 60.8 °F 60.8 °F 100% 29.77 in 10.0 mi SSE 6.9 mph - 0.14 in Rain , Thunderstorm Light Thunderstorms and Rain
7:53 AM 62.6 °F 60.8 °F 94% 29.76 in 10.0 mi SSE 8.1 mph - 0.16 in Rain Light Rain
8:14 AM 62.6 °F 62.6 °F 100% 29.73 in 10.0 mi SE 6.9 mph - 0.01 in Rain Light Rain
8:33 AM 62.6 °F 62.6 °F 100% 29.74 in 10.0 mi SSE 6.9 mph - 0.01 in   Overcast
8:53 AM 64.4 °F 62.6 °F 94% 29.73 in 10.0 mi SSE 9.2 mph - 0.01 in   Overcast
9:14 AM 64.4 °F 62.6 °F 94% 29.72 in 10.0 mi SSE 10.4 mph - N/A   Overcast
9:33 AM 64.4 °F 62.6 °F 94% 29.69 in 10.0 mi SE 9.2 mph - N/A   Overcast
9:53 AM 64.4 °F 62.6 °F 94% 29.67 in 10.0 mi SE 11.5 mph 20.7 mph N/A   Overcast
10:14 AM 66.2 °F 64.4 °F 94% 29.66 in 10.0 mi SE 13.8 mph 19.6 mph N/A   Overcast
10:33 AM 66.2 °F 64.4 °F 94% 29.69 in 7.0 mi SSE 11.5 mph 17.3 mph N/A Rain Light Rain
10:53 AM 66.2 °F 64.4 °F 94% 29.70 in 5.0 mi SSE 10.4 mph - N/A   Light Drizzle
11:13 AM 66.2 °F 64.4 °F 94% 29.70 in 2.5 mi SSE 9.2 mph 17.3 mph N/A   Overcast
11:33 AM 66.2 °F 64.4 °F 94% 29.71 in 1.5 mi South 6.9 mph 10.4 mph N/A   Overcast
11:53 AM 66.2 °F 64.4 °F 94% 29.70 in 1.5 mi SSE 9.2 mph - N/A Rain Light Rain
12:13 PM 66.2 °F 64.4 °F 94% 29.70 in 2.0 mi South 6.9 mph - N/A   Overcast
12:33 PM 66.2 °F 66.2 °F 100% 29.70 in 2.5 mi South 6.9 mph - N/A   Overcast
12:54 PM 66.2 °F 66.2 °F 100% 29.69 in 2.5 mi South 6.9 mph - N/A   Overcast
1:13 PM 68.0 °F 66.2 °F 94% 29.69 in 3.0 mi South 4.6 mph - N/A   Overcast
1:33 PM 68.0 °F 66.2 °F 94% 29.69 in 3.0 mi SSW 4.6 mph - N/A   Overcast
1:54 PM 68.0 °F 66.2 °F 94% 29.69 in 3.0 mi Calm Calm - N/A   Overcast
2:13 PM 68.0 °F 66.2 °F 94% 29.68 in 4.0 mi South 3.5 mph - N/A   Overcast
2:33 PM 69.8 °F 66.2 °F 88% 29.68 in 4.0 mi Calm Calm - N/A   Overcast
2:54 PM 69.8 °F 66.2 °F 88% 29.68 in 5.0 mi Calm Calm - N/A   Overcast
3:13 PM 69.8 °F 66.2 °F 88% 29.68 in 5.0 mi Calm Calm - N/A   Overcast
3:33 PM 69.8 °F 66.2 °F 88% 29.68 in 5.0 mi Calm Calm - N/A   Overcast
3:54 PM 69.8 °F 66.2 °F 88% 29.68 in 5.0 mi Calm Calm - N/A   Overcast
4:13 PM 69.8 °F 66.2 °F 88% 29.68 in 5.0 mi Calm Calm - N/A   Overcast
4:33 PM 71.6 °F 66.2 °F 83% 29.68 in 5.0 mi SSW 3.5 mph - N/A   Overcast
4:54 PM 71.6 °F 68.0 °F 88% 29.69 in 5.0 mi Calm Calm - N/A   Overcast
5:13 PM 71.6 °F 68.0 °F 88% 29.70 in 5.0 mi Calm Calm - N/A   Overcast
5:33 PM 71.6 °F 68.0 °F 88% 29.69 in 5.0 mi Calm Calm - N/A   Overcast
5:54 PM 71.6 °F 68.0 °F 88% 29.69 in 5.0 mi Calm Calm - N/A   Scattered Clouds
6:13 PM 73.4 °F 68.0 °F 83% 29.69 in 5.0 mi Calm Calm - N/A   Haze
6:33 PM 71.6 °F 68.0 °F 88% 29.69 in 5.0 mi South 4.6 mph - N/A   Clear
6:53 PM 71.6 °F 69.8 °F 94% 29.69 in 5.0 mi Calm Calm - N/A   Scattered Clouds
7:13 PM 71.6 °F 68.0 °F 88% 29.70 in 5.0 mi Calm Calm - N/A   Scattered Clouds
7:33 PM 71.6 °F 68.0 °F 88% 29.70 in 4.0 mi Calm Calm - N/A   Mostly Cloudy
7:53 PM 69.8 °F 66.2 °F 88% 29.71 in 4.0 mi South 3.5 mph - N/A   Scattered Clouds
8:13 PM 69.8 °F 68.0 °F 94% 29.71 in 4.0 mi Calm Calm - N/A   Mostly Cloudy
8:33 PM 69.8 °F 68.0 °F 94% 29.72 in 4.0 mi SSW 3.5 mph - N/A   Mostly Cloudy
8:53 PM 69.8 °F 68.0 °F 94% 29.73 in 7.0 mi WSW 8.1 mph - N/A   Mostly Cloudy
9:13 PM 69.8 °F 66.2 °F 88% 29.73 in 10.0 mi West 6.9 mph - N/A   Scattered Clouds
9:33 PM 69.8 °F 66.2 °F 88% 29.74 in 10.0 mi West 6.9 mph - N/A   Clear
9:53 PM 69.8 °F 66.2 °F 88% 29.74 in 10.0 mi West 6.9 mph - N/A   Scattered Clouds
10:13 PM 69.8 °F 66.2 °F 88% 29.75 in 10.0 mi West 5.8 mph - N/A   Mostly Cloudy
10:33 PM 69.8 °F 66.2 °F 88% 29.75 in 7.0 mi West 6.9 mph - N/A   Overcast
10:53 PM 69.8 °F 66.2 °F 88% 29.76 in 7.0 mi West 8.1 mph - N/A   Overcast
11:13 PM 69.8 °F 66.2 °F 88% 29.77 in 10.0 mi West 8.1 mph - N/A   Overcast
11:32 PM 68.0 °F 64.4 °F 88% 29.78 in 10.0 mi WNW 12.7 mph - N/A   Overcast
11:53 PM 66.2 °F 64.4 °F 94% 29.78 in 10.0 mi WNW 11.5 mph 16.1 mph N/A   Overcast